GFSWCAN_850_dewp_096.txt.gz
Dewpoint
-4 -4 -4 -5 -6 -7 -6 -7 -6 -6 -6 -4 -3 -5 -10 -6 -4 -4 -2 -2 -3 -2 -4 -4 -5 -5 -6 -6 -5 -5 -3 -4 -2 -1 -1 -1 -0 -0 -1 -0 0 -0 1 1 0 0 1 0 -1 2 1 1 1 -0
-4 -5 -6 -5 -3 -5 -6 -7 -7 -7 -7 -5 -4 -5 -7 -7 -5 -4 -3 -2 -2 -2 -2 -4 -4 -4 -4 -5 -4 -4 -3 -3 -2 -1 -2 -2 0 -1 -1 1 -1 2 2 3 2 2 -0 -2 -2 -2 -2 -2 -1 -2
-5 -4 -6 -7 -4 -5 -6 -8 -8 -7 -8 -4 -4 -6 -8 -11 -6 -4 -3 -2 -2 -3 -3 -2 -3 -3 -5 -5 -4 -4 -5 -3 -1 -1 -2 -2 0 -1 -0 -1 -1 1 -1 2 3 -0 -2 -2 -2 -3 -3 -4 -3 -3
-6 -6 -8 -7 -5 -6 -6 -7 -8 -8 -7 -4 -5 -6 -10 -11 -6 -4 -3 -3 -2 -2 -2 -4 -6 -5 -6 -6 -4 -4 -4 -3 -2 -1 -2 -2 -0 -2 -1 -1 -1 -1 -2 -0 2 -0 -2 -2 -3 -3 -4 -4 -5 -5
-6 -8 -10 -6 -5 -6 -8 -8 -8 -8 -6 -4 -6 -10 -10 -7 -7 -4 -3 -3 -3 -3 -1 -3 -3 -3 -5 -5 -6 -3 -3 -4 -3 -4 -3 -1 -3 -1 -0 0 -1 -2 -1 0 -0 -2 -2 -3 -5 -5 -5 -6 -5 -5
-5 -7 -9 -7 -7 -8 -9 -8 -8 -8 -7 -5 -8 -8 -7 -5 -6 -3 -2 -3 -3 -3 -2 -2 -3 -4 -5 -4 -3 -3 -3 -3 -3 -4 -2 -0 0 -0 -0 -1 -2 -2 -2 -3 -2 -3 -3 -5 -5 -6 -6 -7 -7 -7
-7 -8 -8 -6 -8 -8 -8 -8 -8 -8 -5 -6 -9 -6 -5 -4 -3 -3 -2 -2 -3 -2 -2 -2 -4 -1 -2 -2 -3 -3 -2 -2 -3 -3 -2 -1 -2 -1 -1 -2 -3 -3 -3 -3 -3 -3 -4 -4 -5 -6 -7 -8 -9 -9
-7 -6 -6 -6 -7 -7 -9 -9 -7 -5 -6 -9 -9 -4 -2 -2 -2 -2 -2 -2 -2 -2 -2 -1 -3 -3 -2 -2 -3 -2 -2 -2 -1 -2 -1 -1 -2 -2 -0 -3 -4 -5 -5 -5 -5 -4 -5 -6 -7 -7 -8 -8 -9 -9
-7 -7 -7 -7 -7 -8 -9 -10 -7 -6 -9 -9 -3 -2 -2 -1 -2 -2 -2 -2 -2 -2 -2 -3 -2 -1 -1 -1 -2 -1 -2 -1 -2 -2 -2 -2 -2 -0 -2 -4 -5 -6 -6 -7 -5 -6 -6 -7 -8 -8 -9 -9 -9 -10
-8 -11 -11 -9 -8 -9 -10 -10 -8 -7 -8 -5 -3 -2 -2 -1 -2 -2 -2 -3 -2 -2 -2 -3 -3 -1 -1 -1 -1 -1 -1 -3 -2 -3 -2 -1 -2 -5 -6 -6 -6 -7 -8 -8 -6 -7 -7 -8 -8 -9 -10 -10 -11 -11
-9 -11 -8 -7 -8 -9 -9 -8 -6 -8 -5 -3 -2 -2 -2 -2 -2 -2 -3 -2 -2 -3 -4 -4 -3 -2 -1 -1 -0 -1 -1 -2 -2 -2 -2 -2 -2 -6 -7 -7 -8 -9 -9 -8 -8 -8 -8 -8 -9 -9 -10 -11 -12 -12
-8 -10 -9 -8 -9 -10 -6 -6 -8 -6 -3 -3 -2 -2 -2 -2 -2 -2 -2 -3 -4 -4 -4 -4 -3 -3 -1 -1 -1 -1 -2 -2 -1 -1 -1 -1 -5 -7 -7 -8 -9 -9 -9 -9 -9 -9 -10 -10 -10 -11 -11 -12 -12 -12
-8 -8 -9 -9 -9 -10 -6 -7 -7 -5 -3 -2 -2 -2 -2 -2 -1 -2 -2 -2 -2 -4 -3 -3 -2 -2 -2 -1 -1 -0 -1 -1 -1 1 -0 -3 -7 -8 -8 -10 -10 -10 -10 -11 -11 -11 -12 -12 -12 -12 -12 -12 -13 -13
-8 -9 -8 -9 -9 -9 -7 -8 -7 -4 -3 -2 -2 -0 -1 -1 -2 -2 -3 -2 -2 -2 -2 -2 -2 -2 -2 -1 1 -0 -1 -1 -1 -0 -0 -6 -8 -8 -9 -11 -12 -12 -12 -12 -12 -12 -12 -13 -13 -13 -13 -13 -13 -13
-10 -10 -9 -9 -6 -6 -8 -8 -5 -3 -3 -2 -2 -1 -2 -3 -3 -3 -2 -2 -2 -2 -2 -1 -1 -2 -1 -0 -1 -1 -1 -1 -2 -1 -5 -7 -8 -9 -10 -12 -12 -12 -12 -12 -12 -13 -13 -13 -13 -13 -13 -13 -13 -14
-8 -7 -7 -7 -6 -6 -6 -5 -4 -3 -3 -4 -4 -3 -4 -3 -3 -3 -3 -2 -2 -1 -1 -1 -1 -0 -0 -2 -1 -1 -1 -1 -2 -6 -7 -8 -10 -11 -12 -12 -13 -13 -13 -13 -13 -13 -13 -13 -13 -13 -13 -13 -14 -16
-6 -6 -7 -6 -7 -7 -6 -4 -4 -4 -5 -6 -5 -6 -4 -3 -3 -3 -3 -3 -2 -1 2 -2 -0 -1 -4 -2 -1 -4 -1 -5 -8 -8 -8 -9 -10 -12 -12 -12 -13 -13 -13 -13 -13 -13 -13 -13 -14 -14 -13 -14 -14 -15
-4 -3 -2 -4 -5 -4 -4 -4 -5 -6 -6 -6 -5 -6 -6 -6 -5 -4 -3 -2 -2 -3 -4 -3 -5 -2 -1 -1 -2 -6 -9 -9 -8 -8 -9 -11 -12 -12 -12 -13 -13 -13 -13 -13 -13 -13 -14 -14 -13 -13 -14 -14 -14 -14
-3 -2 -1 -1 -3 -4 -4 -5 -6 -7 -6 -6 -7 -7 -7 -7 -6 -5 -4 -2 -3 -5 -6 -7 -4 -3 -3 -7 -8 -8 -8 -9 -9 -10 -11 -12 -12 -12 -13 -13 -13 -13 -13 -13 -13 -13 -13 -13 -13 -13 -13 -14 -14 -14
-3 -3 -2 -2 -2 -5 -5 -6 -7 -7 -6 -6 -6 -6 -6 -7 -7 -6 -6 -6 -6 -5 -5 -5 -6 -7 -7 -8 -8 -8 -8 -9 -10 -10 -11 -11 -12 -12 -12 -11 -11 -12 -12 -13 -13 -13 -13 -14 -14 -14 -15 -15 -15 -14
-3 -2 -2 -2 -8 -8 -6 -6 -7 -7 -6 -7 -6 -7 -7 -7 -6 -6 -6 -6 -6 -7 -7 -9 -8 -9 -10 -10 -9 -10 -9 -9 -10 -10 -10 -10 -11 -11 -12 -12 -12 -12 -12 -13 -13 -13 -14 -14 -14 -15 -16 -16 -18 -17
-3 -2 -2 -3 -6 -8 -6 -7 -7 -7 -7 -6 -6 -7 -6 -6 -7 -7 -8 -7 -8 -9 -9 -9 -9 -10 -10 -11 -11 -10 -12 -12 -13 -12 -12 -12 -11 -12 -12 -12 -12 -12 -13 -13 -13 -14 -14 -15 -16 -16 -17 -17 -19 -18
-5 -4 -4 -5 -7 -6 -6 -6 -6 -7 -6 -7 -7 -7 -7 -7 -8 -9 -8 -10 -9 -10 -10 -9 -10 -10 -11 -12 -12 -13 -13 -13 -11 -11 -12 -12 -12 -12 -12 -14 -13 -13 -13 -14 -16 -15 -15 -18 -19 -19 -19 -18 -18 -18
-4 -6 -6 -5 -6 -6 -6 -6 -6 -7 -7 -7 -7 -7 -8 -8 -11 -10 -8 -10 -10 -10 -10 -10 -10 -10 -11 -11 -11 -12 -12 -12 -13 -13 -13 -13 -14 -16 -18 -20 -20 -19 -18 -18 -18 -17 -18 -17 -18 -18 -18 -18 -18 -18
-8 -8 -8 -7 -7 -7 -6 -6 -7 -8 -7 -8 -8 -8 -9 -10 -9 -9 -8 -10 -10 -10 -10 -10 -10 -10 -10 -10 -11 -11 -11 -12 -13 -14 -16 -17 -17 -19 -20 -20 -19 -19 -18 -17 -16 -16 -17 -18 -19 -20 -19 -19 -19 -19
-7 -8 -7 -7 -7 -7 -7 -6 -7 -7 -8 -8 -8 -9 -9 -9 -8 -8 -11 -10 -9 -10 -10 -10 -10 -10 -10 -11 -11 -12 -14 -16 -17 -16 -17 -18 -19 -17 -16 -15 -15 -16 -20 -20 -21 -21 -22 -26 -27 -26 -23 -20 -20 -21
-7 -8 -9 -10 -9 -9 -8 -9 -10 -9 -8 -7 -8 -8 -9 -8 -8 -11 -12 -12 -11 -11 -10 -11 -12 -12 -13 -14 -15 -16 -16 -17 -17 -17 -19 -22 -26 -25 -24 -22 -22 -23 -27 -27 -27 -28 -28 -27 -27 -26 -25 -23 -23 -24
-10 -11 -9 -12 -12 -12 -11 -11 -10 -10 -10 -11 -11 -10 -10 -10 -11 -12 -12 -11 -11 -11 -12 -12 -13 -13 -15 -16 -16 -16 -16 -16 -17 -20 -26 -25 -25 -25 -24 -24 -28 -29 -29 -29 -29 -29 -28 -28 -27 -26 -26 -26 -26 -26
-12 -13 -14 -15 -14 -14 -14 -13 -12 -13 -13 -12 -11 -13 -13 -15 -15 -14 -12 -11 -11 -11 -13 -14 -15 -15 -15 -15 -15 -15 -16 -19 -24 -26 -25 -24 -26 -25 -26 -27 -28 -29 -29 -30 -30 -29 -29 -29 -28 -27 -27 -26 -26 -26
-13 -14 -14 -15 -15 -14 -14 -15 -14 -14 -14 -14 -14 -15 -15 -16 -14 -13 -12 -11 -11 -13 -13 -13 -14 -14 -14 -14 -16 -18 -23 -26 -28 -28 -27 -28 -29 -29 -29 -29 -30 -30 -29 -29 -29 -28 -27 -26 -26 -26 -26 -26 -26 -26
-14 -14 -14 -14 -14 -14 -14 -14 -14 -14 -15 -15 -14 -14 -14 -15 -14 -13 -12 -12 -12 -13 -12 -12 -13 -13 -14 -19 -21 -25 -27 -27 -27 -28 -29 -29 -30 -30 -30 -30 -29 -29 -28 -26 -26 -26 -27 -27 -28 -28 -27 -27 -27 -28
-14 -14 -15 -14 -14 -14 -14 -14 -13 -13 -13 -13 -14 -14 -14 -13 -14 -14 -12 -12 -11 -11 -11 -12 -13 -16 -19 -21 -25 -26 -26 -26 -28 -29 -30 -30 -31 -30 -29 -29 -27 -26 -27 -28 -28 -28 -28 -28 -28 -28 -28 -28 -28 -28
-14 -14 -14 -14 -13 -13 -14 -13 -14 -14 -13 -13 -14 -15 -15 -14 -14 -14 -13 -13 -12 -12 -13 -14 -16 -18 -22 -26 -26 -25 -25 -28 -30 -30 -31 -30 -30 -28 -26 -26 -28 -28 -28 -28 -28 -27 -28 -28 -28 -28 -27 -26 -25 -23

GFSWCAN_850_dewp_099.txt.gz
Dewpoint
-5 -3 -3 -3 -4 -4 -4 -5 -6 -6 -7 -6 -3 -4 -7 -7 -5 -4 -2 -2 -2 -2 -4 -4 -4 -5 -5 -7 -5 -6 -4 -4 -2 -0 -2 -1 0 -2 -1 -3 -1 1 3 1 1 -1 3 -1 -1 2 0 -1 0 -0
-6 -5 -3 -3 -4 -6 -6 -7 -7 -6 -7 -6 -4 -4 -5 -10 -5 -4 -2 -3 -2 -2 -3 -2 -2 -2 -3 -4 -4 -6 -4 -4 -3 -2 -2 -1 0 -1 -2 4 -3 2 1 2 2 2 -0 -1 -1 -2 -2 -2 -2 -2
-5 -5 -4 -4 -3 -4 -4 -6 -7 -6 -7 -6 -5 -4 -4 -7 -8 -5 -3 -2 -3 -3 -3 -3 -4 -3 -2 -2 -2 -4 -6 -4 -1 -2 -1 -1 0 -2 -0 -1 -2 1 -2 3 2 -0 -2 -2 -2 -2 -2 -3 -3 -2
-4 -5 -4 -5 -5 -4 -4 -6 -7 -8 -7 -7 -6 -5 -6 -8 -11 -7 -3 -2 -3 -2 -2 -4 -4 -4 -3 -3 -2 -3 -3 -4 -4 -3 -3 -2 -1 -3 -1 -1 -1 -1 -2 0 0 -1 -2 -3 -3 -3 -3 -3 -3 -3
-6 -5 -5 -6 -7 -7 -6 -6 -7 -7 -7 -8 -5 -4 -6 -9 -11 -7 -3 -2 -2 -2 -1 -3 -3 -4 -2 -2 -2 -2 -3 -4 -4 -3 -3 -1 -3 -2 -2 -2 1 -2 -1 1 1 -1 -1 -3 -4 -4 -4 -4 -5 -5
-6 -5 -5 -7 -6 -5 -6 -6 -7 -7 -8 -8 -4 -5 -10 -11 -7 -3 -3 -3 -3 -2 -1 -2 -2 -4 -2 -2 -3 -3 -3 -4 -4 -4 -4 -2 -1 -1 -1 -0 -2 -1 -1 -2 -2 -2 -3 -4 -4 -4 -5 -7 -7 -7
-5 -5 -7 -8 -8 -6 -7 -8 -8 -8 -8 -7 -5 -8 -11 -8 -4 -3 -2 -1 -2 -2 -3 -2 -4 -2 -2 -2 -3 -3 -3 -3 -3 -3 -4 -4 -4 -2 -1 -1 -2 -3 -3 -3 -2 -2 -2 -3 -4 -6 -7 -8 -8 -9
-7 -6 -6 -8 -7 -7 -8 -7 -7 -8 -8 -7 -5 -8 -7 -5 -4 -3 -3 -2 -2 -2 -3 -0 -3 -3 -2 -2 -2 -2 -3 -3 -3 -3 -2 -3 -4 -2 0 -2 -3 -4 -4 -4 -4 -4 -5 -6 -6 -7 -7 -8 -9 -9
-7 -6 -7 -8 -7 -8 -7 -7 -8 -8 -7 -5 -7 -7 -5 -4 -3 -3 -2 -2 -2 -2 -1 -2 -2 -0 -2 -2 -1 -3 -3 -2 -3 -1 -2 -3 -3 0 -1 -3 -5 -5 -5 -6 -6 -6 -6 -7 -7 -8 -8 -8 -8 -9
-8 -7 -6 -7 -7 -7 -8 -9 -9 -6 -5 -7 -5 -3 -3 -2 -2 -2 -2 -2 -2 -2 -1 -3 -4 -1 -2 -2 -3 -2 -3 -3 -1 -2 -3 -2 -3 -4 -5 -5 -5 -6 -7 -7 -5 -6 -6 -7 -8 -8 -9 -9 -9 -10
-8 -6 -7 -7 -7 -7 -8 -10 -10 -9 -6 -5 -3 -3 -2 -2 -2 -2 -2 -1 -1 -2 -4 -4 -4 -3 -1 -0 0 -2 -1 -3 -3 -1 -2 -2 -1 -4 -6 -7 -7 -8 -8 -8 -7 -8 -8 -8 -8 -9 -9 -10 -10 -11
-6 -7 -11 -10 -8 -8 -9 -10 -8 -6 -5 -4 -2 -2 -2 -2 -2 -1 -2 -3 -3 -4 -4 -4 -3 -3 -0 -0 -1 -2 -2 -2 -1 -2 -1 -1 -4 -6 -7 -8 -8 -8 -9 -9 -9 -9 -9 -9 -9 -10 -10 -11 -12 -12
-6 -10 -10 -7 -8 -9 -8 -8 -7 -5 -5 -3 -2 -2 -2 -1 0 -1 -1 -2 -2 -3 -2 -3 -1 -1 -1 -1 -0 -1 -1 -0 -1 0 -1 -2 -6 -7 -8 -9 -9 -9 -10 -10 -10 -10 -10 -11 -11 -11 -12 -12 -12 -13
-6 -10 -9 -9 -8 -9 -9 -5 -7 -7 -4 -3 -2 -0 0 -1 -1 -2 -3 -2 -0 -1 -2 -3 -1 -2 -1 -0 1 1 -0 -2 -0 -0 0 -4 -6 -7 -8 -9 -9 -11 -11 -11 -11 -12 -12 -12 -13 -13 -13 -13 -13 -13
-7 -8 -9 -9 -10 -10 -9 -7 -7 -6 -4 -3 -1 -0 -1 -1 -1 -1 -0 -1 -1 -1 -2 -1 -2 -2 -1 1 0 1 0 -0 -1 1 -3 -5 -7 -8 -9 -9 -10 -12 -12 -12 -12 -13 -13 -13 -13 -13 -13 -13 -14 -14
-8 -9 -7 -8 -8 -9 -8 -6 -5 -5 -3 -3 -3 -2 -2 -2 -2 -2 -2 -2 -1 -1 -2 -1 -1 -1 -1 -1 -0 -0 -0 -0 -0 -4 -6 -7 -8 -9 -10 -11 -12 -11 -11 -12 -12 -13 -13 -13 -13 -13 -13 -13 -14 -16
-9 -5 -8 -8 -6 -5 -5 -5 -5 -4 -3 -3 -4 -3 -2 -2 -2 -2 -3 -2 -2 -1 2 -3 -1 -2 -2 -2 -1 -2 0 -3 -6 -6 -7 -8 -9 -10 -11 -12 -12 -12 -11 -12 -12 -12 -13 -13 -13 -13 -12 -13 -14 -14
-7 -8 -9 -9 -5 -5 -5 -5 -4 -4 -4 -5 -4 -4 -4 -4 -3 -3 -3 -2 -1 -1 -2 -1 -3 -1 -0 -0 -0 -3 -6 -6 -7 -7 -8 -9 -10 -12 -11 -11 -11 -11 -12 -12 -12 -12 -12 -12 -12 -11 -12 -13 -13 -13
-8 -8 -8 -7 -5 -6 -5 -5 -5 -5 -5 -5 -5 -5 -4 -5 -4 -4 -3 -3 -3 -4 -3 -4 -1 -1 -1 -4 -4 -5 -6 -7 -8 -8 -9 -10 -10 -11 -11 -11 -11 -11 -11 -12 -11 -11 -11 -12 -12 -12 -13 -13 -14 -14
-5 -5 -5 -6 -6 -4 -4 -5 -5 -6 -5 -5 -5 -5 -5 -5 -5 -5 -4 -4 -3 -2 -2 -2 -2 -4 -4 -5 -5 -6 -6 -7 -8 -9 -9 -10 -10 -11 -11 -10 -10 -11 -11 -11 -12 -13 -12 -13 -13 -14 -14 -14 -14 -14
-2 -3 -4 -5 -4 -5 -5 -6 -6 -6 -6 -6 -6 -5 -6 -5 -4 -4 -4 -5 -3 -3 -3 -5 -5 -7 -7 -6 -6 -7 -7 -8 -9 -9 -9 -9 -10 -10 -10 -10 -11 -11 -11 -11 -11 -12 -13 -13 -13 -14 -14 -14 -14 -15
-4 -4 -4 -4 -5 -5 -6 -6 -7 -6 -6 -6 -5 -6 -5 -4 -4 -4 -5 -4 -4 -5 -6 -6 -7 -8 -8 -8 -8 -8 -8 -9 -9 -9 -9 -10 -10 -10 -10 -11 -11 -11 -12 -11 -12 -13 -12 -13 -14 -14 -15 -15 -15 -16
-3 -3 -4 -4 -5 -5 -5 -5 -6 -7 -6 -5 -6 -6 -5 -6 -6 -7 -5 -6 -6 -7 -7 -8 -9 -9 -8 -9 -10 -10 -10 -10 -10 -9 -10 -10 -10 -10 -11 -11 -12 -12 -13 -13 -14 -14 -14 -14 -15 -16 -15 -16 -16 -16
-3 -4 -4 -4 -6 -5 -5 -4 -7 -7 -6 -5 -5 -6 -6 -6 -8 -6 -5 -7 -7 -8 -8 -9 -9 -10 -10 -10 -10 -10 -10 -10 -10 -10 -10 -11 -12 -12 -13 -14 -14 -14 -15 -15 -14 -14 -14 -15 -15 -16 -16 -16 -16 -16
-4 -6 -5 -5 -5 -6 -6 -6 -6 -7 -5 -6 -5 -6 -6 -8 -5 -5 -5 -7 -8 -8 -8 -9 -10 -10 -10 -9 -10 -10 -10 -11 -11 -11 -12 -13 -13 -14 -15 -15 -15 -17 -21 -14 -14 -14 -15 -16 -16 -16 -17 -17 -17 -17
-6 -7 -5 -5 -5 -5 -6 -5 -5 -6 -6 -5 -6 -7 -7 -5 -4 -4 -8 -7 -8 -8 -8 -8 -9 -9 -9 -10 -10 -10 -11 -11 -12 -13 -15 -15 -14 -13 -13 -14 -14 -13 -15 -21 -16 -16 -16 -17 -17 -18 -18 -18 -18 -18
-6 -7 -9 -10 -8 -7 -6 -7 -7 -6 -6 -6 -6 -6 -5 -4 -4 -9 -9 -8 -8 -9 -9 -9 -9 -9 -10 -10 -11 -13 -15 -17 -13 -15 -20 -21 -25 -27 -24 -15 -14 -16 -26 -28 -28 -25 -20 -19 -18 -18 -19 -18 -18 -19
-9 -9 -7 -9 -9 -9 -8 -7 -7 -7 -7 -8 -7 -6 -6 -6 -8 -10 -10 -10 -9 -10 -10 -10 -10 -10 -11 -13 -16 -17 -18 -18 -19 -21 -27 -27 -27 -27 -27 -26 -28 -29 -29 -29 -30 -30 -29 -27 -23 -19 -19 -19 -20 -20
-9 -10 -12 -12 -11 -11 -11 -10 -10 -11 -12 -9 -8 -9 -11 -13 -13 -12 -12 -11 -11 -11 -11 -12 -13 -14 -16 -16 -16 -16 -16 -18 -20 -25 -17 -14 -15 -18 -27 -28 -29 -30 -30 -30 -29 -29 -29 -28 -26 -26 -26 -25 -23 -21
-10 -11 -12 -13 -12 -11 -12 -12 -12 -12 -12 -12 -13 -13 -13 -14 -15 -13 -12 -12 -11 -11 -12 -14 -15 -15 -16 -16 -16 -17 -20 -26 -28 -21 -14 -15 -17 -29 -29 -30 -31 -30 -30 -29 -27 -26 -26 -27 -26 -22 -20 -20 -20 -21
-11 -11 -11 -12 -12 -12 -13 -13 -13 -12 -12 -12 -11 -12 -13 -14 -14 -14 -13 -12 -12 -13 -14 -14 -14 -14 -14 -15 -17 -21 -27 -28 -28 -28 -29 -30 -30 -31 -31 -30 -30 -29 -27 -26 -28 -28 -28 -28 -27 -25 -21 -22 -25 -25
-11 -11 -12 -12 -12 -12 -12 -11 -12 -12 -12 -12 -12 -12 -12 -11 -12 -14 -13 -12 -13 -13 -12 -12 -13 -13 -16 -20 -23 -27 -27 -26 -27 -29 -30 -31 -31 -30 -30 -28 -26 -27 -28 -28 -28 -28 -27 -28 -28 -28 -27 -26 -25 -24
-12 -11 -11 -12 -12 -12 -12 -12 -12 -12 -12 -12 -12 -11 -11 -11 -13 -14 -13 -13 -13 -13 -13 -13 -14 -16 -19 -23 -27 -26 -25 -27 -30 -31 -31 -30 -30 -27 -26 -28 -28 -28 -28 -28 -28 -28 -27 -26 -24 -22 -22 -21 -22 -22

GFSWCAN_850_dewp_102.txt.gz
Dewpoint
-2 -2 -2 -5 -5 -5 -5 -6 -6 -5 -5 -6 -7 -4 -5 -7 -7 -4 -2 -4 -1 -2 -4 -4 -4 -4 -6 -7 -3 -6 -4 -3 -2 1 -2 -2 -1 -2 -0 -1 -1 1 3 2 2 3 3 -2 -2 0 -0 -1 -1 -0
-3 -3 -3 -3 -4 -4 -4 -4 -6 -6 -5 -7 -6 -4 -5 -10 -8 -4 -2 -2 -3 -2 -2 -3 -5 -3 -3 -3 -3 -4 -4 -3 -2 -2 -1 -2 0 0 -2 4 -3 3 1 1 1 1 -0 -2 -1 -2 -1 -2 -2 -2
-4 -5 -3 -2 -3 -3 -6 -4 -6 -6 -6 -7 -6 -3 -5 -9 -7 -6 -2 -3 -2 -3 -2 -3 -4 -2 -2 -1 -1 -2 -1 -4 -2 -2 -2 -1 -1 -2 1 -0 -1 0 -3 2 1 -1 -2 -2 -2 -2 -2 -2 -2 -3
-4 -5 -5 -3 -3 -3 -6 -6 -7 -5 -5 -6 -7 -4 -4 -5 -10 -6 -3 -3 -3 -3 -2 -3 -4 -4 -3 -3 -2 -2 -2 -3 -4 -4 -2 -1 -1 -3 -0 -2 -0 -1 -2 -0 -0 -2 -2 -3 -3 -3 -3 -3 -4 -4
-5 -5 -5 -4 -5 -3 -4 -4 -6 -8 -7 -6 -7 -5 -5 -7 -10 -10 -4 -3 -2 -1 -1 -4 -4 -5 -4 -2 -2 -2 -2 -3 -4 -5 -2 -1 -3 -1 -3 -2 -0 -2 -1 -0 -0 -1 -2 -2 -3 -3 -5 -5 -6 -6
-4 -4 -4 -4 -5 -7 -5 -4 -7 -7 -6 -6 -7 -4 -4 -7 -12 -3 -3 -3 -4 -3 -1 -2 -3 -2 -2 -2 -2 -3 -3 -3 -4 -4 -4 -4 -4 -1 -0 1 -1 -2 -1 -1 -1 -2 -3 -4 -3 -4 -6 -7 -8 -7
-4 -4 -4 -4 -6 -7 -7 -6 -6 -7 -7 -7 -7 -4 -6 -11 -8 -3 -2 -1 -2 -2 -1 -3 -3 -2 -3 -3 -2 -2 -3 -2 -3 -3 -4 -4 -4 -2 0 0 -2 -3 -3 -1 -2 -2 -2 -3 -5 -6 -7 -7 -8 -8
-5 -5 -5 -5 -8 -6 -5 -6 -7 -7 -7 -7 -5 -5 -9 -8 -5 -3 -2 -2 -1 -2 -3 -2 -3 -1 -2 -2 -2 -2 -2 -2 -2 -4 -4 -3 -4 -2 1 -2 -3 -4 -4 -4 -4 -4 -5 -6 -6 -7 -7 -8 -8 -9
-6 -6 -6 -7 -8 -8 -6 -7 -7 -8 -7 -8 -6 -6 -6 -7 -4 -4 -3 -3 -2 -2 -1 -2 -2 -0 -1 -2 -2 -2 -2 -1 -3 -1 -3 -3 -3 1 -1 -4 -5 -5 -5 -5 -5 -6 -6 -6 -7 -7 -7 -7 -8 -8
-7 -7 -6 -6 -7 -7 -7 -7 -7 -7 -6 -6 -5 -5 -4 -5 -5 -4 -2 -2 -2 -2 -2 -2 -3 -1 -2 -1 -2 -3 -3 -2 1 -2 -3 -2 -0 -4 -4 -4 -5 -5 -6 -6 -5 -5 -6 -7 -8 -8 -8 -9 -9 -10
-7 -7 -7 -8 -7 -7 -8 -7 -7 -6 -6 -5 -4 -3 -2 -2 -2 -2 -2 -2 -2 -2 -3 -4 -4 -3 -2 -1 -0 -3 0 -2 -3 -1 -2 -1 -0 -4 -6 -6 -7 -7 -7 -7 -7 -7 -7 -7 -7 -8 -9 -9 -10 -11
-7 -7 -6 -7 -6 -7 -8 -9 -7 -5 -5 -5 -3 -2 -2 -2 -2 -0 -2 -3 -2 -4 -4 -4 -3 -4 0 -0 1 -2 -2 -1 -1 -2 -1 -1 -3 -5 -6 -7 -7 -8 -8 -9 -8 -9 -9 -9 -9 -9 -10 -11 -11 -12
-8 -7 -6 -6 -6 -7 -8 -9 -10 -7 -4 -5 -3 -2 -2 -2 0 -1 -1 -2 -2 -3 -2 -3 -0 -1 -1 -0 -0 -0 -2 -1 -1 0 -0 -1 -5 -6 -7 -8 -8 -9 -9 -9 -9 -9 -10 -10 -10 -11 -12 -12 -12 -13
-8 -6 -7 -10 -8 -8 -8 -9 -9 -5 -4 -4 -3 -1 0 -1 -2 -2 -2 -1 -1 -1 -2 -3 -2 -2 -2 -1 0 0 0 -2 -1 -0 0 -4 -5 -6 -7 -8 -9 -10 -10 -10 -11 -12 -12 -12 -13 -13 -13 -13 -13 -14
-6 -8 -10 -8 -8 -9 -9 -8 -6 -5 -5 -4 -3 0 -1 -1 -0 0 0 0 -0 -2 -2 -2 -2 -2 -1 1 0 -0 0 -1 -2 1 -2 -5 -6 -7 -8 -9 -10 -11 -11 -11 -12 -13 -13 -13 -13 -13 -13 -13 -14 -14
-9 -9 -6 -8 -9 -9 -6 -5 -5 -5 -5 -3 -3 -0 -1 -1 -1 -2 -1 -1 -2 -3 -2 -1 -1 -0 -1 -1 -0 -0 -1 0 -0 -4 -5 -6 -7 -8 -9 -10 -11 -11 -11 -11 -12 -12 -13 -13 -12 -13 -14 -14 -14 -15
-7 -6 -7 -9 -10 -9 -6 -5 -5 -5 -4 -3 -2 -3 -1 -0 -1 -2 -2 -2 -2 -1 1 -1 -1 -2 -1 -2 -2 -1 0 -2 -5 -5 -6 -7 -8 -9 -10 -11 -11 -11 -11 -11 -11 -12 -12 -12 -13 -13 -12 -13 -14 -14
-6 -6 -9 -8 -7 -6 -5 -5 -5 -4 -3 -3 -2 -3 -3 -2 -2 -3 -2 -3 -1 -1 -1 -1 -3 -1 -1 -1 1 -3 -4 -5 -6 -7 -7 -9 -10 -10 -11 -11 -11 -11 -11 -11 -12 -12 -12 -13 -11 -11 -12 -12 -12 -12
-6 -6 -7 -7 -6 -6 -5 -6 -4 -3 -4 -4 -5 -4 -4 -4 -3 -3 -3 -2 -1 -2 -2 -3 -0 -2 -0 -3 -3 -4 -6 -6 -7 -8 -9 -9 -10 -10 -10 -10 -11 -11 -11 -11 -11 -10 -11 -12 -12 -12 -13 -13 -13 -13
-7 -7 -7 -6 -6 -6 -4 -4 -4 -4 -5 -4 -4 -4 -3 -4 -4 -4 -3 -3 -3 -3 -3 -2 -1 -3 -3 -4 -4 -6 -6 -7 -8 -8 -9 -10 -10 -10 -10 -10 -10 -11 -11 -12 -12 -13 -11 -12 -12 -13 -13 -14 -15 -13
-7 -7 -7 -6 -4 -4 -4 -4 -5 -6 -5 -5 -5 -5 -5 -4 -4 -3 -3 -3 -2 -3 -2 -3 -4 -5 -5 -6 -6 -7 -7 -8 -7 -8 -8 -9 -10 -9 -10 -10 -11 -10 -10 -10 -11 -10 -12 -12 -12 -13 -14 -15 -14 -15
-6 -7 -5 -5 -4 -5 -4 -5 -6 -6 -6 -5 -5 -5 -5 -4 -4 -3 -4 -3 -2 -3 -4 -4 -5 -6 -6 -6 -7 -7 -7 -7 -8 -8 -9 -10 -9 -9 -9 -10 -10 -10 -11 -11 -11 -11 -12 -12 -13 -14 -15 -14 -15 -16
-5 -5 -5 -4 -4 -4 -4 -5 -5 -6 -5 -5 -5 -5 -5 -5 -4 -5 -4 -4 -4 -5 -6 -6 -7 -7 -7 -7 -8 -8 -9 -9 -8 -8 -9 -9 -9 -10 -10 -11 -11 -11 -12 -12 -12 -13 -13 -14 -14 -15 -16 -16 -15 -16
-6 -6 -4 -3 -3 -4 -4 -4 -6 -6 -6 -5 -4 -5 -5 -5 -6 -6 -3 -5 -6 -6 -7 -8 -8 -8 -9 -10 -10 -10 -9 -9 -9 -9 -10 -10 -11 -11 -11 -12 -13 -15 -15 -14 -14 -14 -15 -15 -14 -15 -16 -16 -16 -16
-5 -6 -4 -4 -5 -4 -5 -5 -5 -6 -4 -5 -5 -5 -5 -6 -5 -5 -5 -5 -7 -7 -8 -8 -9 -9 -9 -9 -9 -9 -10 -10 -10 -10 -11 -12 -12 -14 -14 -14 -15 -17 -18 -15 -13 -14 -15 -15 -16 -16 -16 -17 -17 -17
-5 -6 -4 -5 -4 -5 -5 -5 -5 -5 -6 -5 -5 -6 -6 -5 -4 -4 -5 -6 -7 -7 -8 -8 -9 -9 -8 -9 -9 -10 -10 -10 -11 -12 -13 -13 -12 -11 -12 -12 -13 -13 -14 -16 -20 -17 -16 -16 -17 -17 -17 -17 -17 -17
-4 -5 -7 -7 -5 -5 -4 -5 -6 -5 -5 -5 -5 -5 -5 -4 -3 -7 -7 -7 -7 -8 -8 -8 -8 -8 -9 -9 -10 -10 -12 -12 -12 -13 -20 -22 -24 -27 -23 -15 -13 -15 -20 -28 -28 -26 -22 -18 -17 -18 -18 -18 -18 -18
-8 -6 -6 -7 -7 -6 -4 -5 -5 -5 -6 -6 -6 -5 -4 -5 -6 -8 -9 -8 -8 -8 -8 -8 -8 -8 -9 -10 -11 -13 -16 -16 -18 -22 -26 -29 -28 -28 -28 -28 -28 -29 -30 -30 -30 -30 -29 -28 -27 -23 -19 -19 -20 -19
-8 -9 -10 -9 -9 -9 -9 -8 -8 -10 -10 -8 -4 -7 -10 -11 -11 -11 -10 -10 -9 -10 -10 -10 -10 -10 -11 -14 -16 -17 -18 -18 -22 -25 -14 -13 -14 -16 -26 -29 -30 -31 -30 -29 -28 -27 -26 -26 -27 -27 -24 -21 -20 -19
-9 -9 -10 -11 -10 -9 -11 -10 -10 -11 -10 -10 -11 -12 -12 -13 -13 -11 -11 -10 -10 -10 -11 -11 -12 -12 -12 -13 -13 -14 -16 -20 -22 -15 -13 -13 -15 -25 -29 -30 -30 -30 -29 -27 -26 -27 -26 -26 -27 -23 -19 -20 -20 -20
-9 -9 -9 -10 -11 -11 -11 -12 -11 -11 -10 -9 -10 -11 -13 -13 -13 -12 -11 -10 -11 -12 -12 -12 -12 -12 -13 -14 -16 -19 -26 -29 -29 -28 -28 -29 -30 -31 -31 -30 -29 -27 -27 -28 -28 -28 -27 -27 -26 -25 -22 -21 -21 -22
-9 -9 -10 -10 -11 -11 -11 -9 -10 -10 -10 -11 -11 -12 -11 -11 -12 -13 -12 -12 -12 -12 -12 -12 -13 -13 -13 -14 -18 -22 -26 -28 -27 -29 -30 -32 -32 -31 -29 -27 -27 -28 -28 -28 -27 -27 -26 -24 -22 -21 -21 -22 -22 -23
-10 -10 -10 -11 -11 -11 -11 -9 -11 -11 -10 -11 -10 -9 -10 -10 -12 -14 -13 -12 -12 -13 -13 -13 -13 -14 -18 -21 -26 -28 -27 -27 -30 -31 -32 -31 -29 -27 -27 -28 -28 -28 -27 -27 -25 -22 -21 -21 -21 -23 -24 -25 -26 -26

GFSWCAN_850_dewp_105.txt.gz
Dewpoint
-2 -2 -3 -5 -5 -4 -3 -4 -4 -5 -5 -5 -6 -6 -4 -8 -7 -3 -2 -4 -3 -3 -4 -3 -2 -2 -2 -4 -3 -4 -3 -3 -2 -0 -0 -0 1 0 2 1 1 2 3 2 2 2 1 -2 -2 -1 -0 -1 -1 -1
-2 -2 -2 -5 -5 -6 -7 -6 -6 -5 -5 -5 -7 -5 -5 -8 -7 -3 -2 -3 -4 -5 -5 -3 -5 -8 -4 -5 -3 -2 -3 -2 -1 -2 -2 -1 0 0 1 3 -1 2 1 1 1 0 -1 -2 -1 -2 -2 -2 -1 -1
-2 -2 -2 -4 -5 -5 -5 -5 -6 -5 -5 -6 -6 -4 -5 -10 -9 -4 -3 -3 -5 -4 -4 -3 -4 -2 -4 -2 -1 -2 -2 -2 -3 -2 -2 -2 0 -1 2 3 3 1 -0 -0 1 -0 -1 -1 -2 -2 -2 -2 -2 -3
-2 -3 -2 -3 -3 -4 -4 -4 -6 -5 -5 -6 -5 -4 -4 -8 -12 -6 -3 -4 -3 -3 -3 -2 -3 -4 -4 -3 -2 -2 -2 -2 -3 -4 -3 -2 -1 -2 1 1 1 -1 -1 0 -0 -1 -2 -2 -3 -3 -3 -4 -4 -5
-3 -3 -3 -2 -2 -3 -5 -5 -6 -5 -5 -6 -6 -5 -4 -5 -9 -9 -6 -4 -3 -2 -2 -4 -5 -6 -4 -3 -2 -2 -2 -2 -3 -3 -2 -1 -3 -1 -1 0 -0 -2 -1 0 -1 -1 -2 -3 -3 -4 -5 -6 -7 -6
-3 -4 -4 -3 -3 -3 -3 -5 -6 -7 -6 -6 -7 -5 -5 -7 -12 -11 -9 -10 -5 -2 -2 -3 -4 -5 -2 -3 -2 -2 -2 -3 -3 -3 -4 -4 -4 -2 -1 -1 -1 -1 -2 -1 -2 -2 -2 -3 -4 -5 -7 -8 -8 -8
-4 -4 -4 -4 -4 -4 -4 -4 -6 -7 -7 -6 -7 -5 -4 -7 -11 -3 -2 -2 -2 -2 -2 -3 -3 -2 -2 -3 -3 -2 -3 -2 -3 -3 -3 -3 -4 -3 -1 0 -1 -2 -2 -2 -2 -3 -3 -3 -4 -6 -7 -8 -8 -8
-4 -4 -4 -4 -4 -7 -4 -5 -6 -7 -6 -7 -6 -4 -6 -10 -10 -3 -2 -2 -2 -2 -3 -3 -3 -1 -3 -3 -3 -2 -2 -3 -3 -3 -4 -3 -3 -2 0 -2 -4 -4 -4 -3 -4 -5 -5 -6 -7 -7 -8 -8 -8 -8
-4 -4 -4 -4 -5 -6 -6 -6 -6 -7 -6 -5 -5 -6 -10 -8 -6 -4 -3 -3 -3 -2 -2 -3 -3 -2 -1 -2 -2 -2 -2 -3 -3 -3 -2 -3 -3 -1 -2 -3 -5 -5 -5 -5 -5 -6 -6 -7 -7 -8 -8 -8 -8 -9
-5 -5 -5 -6 -7 -5 -5 -6 -7 -8 -7 -6 -5 -7 -7 -8 -7 -5 -3 -3 -2 -3 -3 -2 -3 -3 -2 -1 -2 -2 -3 -2 0 -1 -3 -4 -2 -3 -3 -4 -5 -5 -6 -6 -5 -5 -6 -7 -8 -8 -9 -10 -10 -11
-5 -5 -5 -7 -8 -7 -7 -7 -7 -7 -5 -5 -6 -5 -3 -6 -3 -4 -2 -2 -3 -2 -3 -2 -3 -2 -2 -3 -2 -3 -1 -3 -1 0 -2 -2 -1 -3 -5 -6 -7 -7 -7 -7 -6 -7 -7 -7 -8 -9 -9 -10 -11 -11
-7 -6 -6 -6 -7 -7 -8 -7 -7 -5 -5 -7 -5 -3 -2 -3 -2 -1 -3 -3 -2 -3 -4 -3 -4 -4 -1 -0 -1 -1 -3 -3 -2 -1 -3 -4 -3 -6 -6 -7 -7 -8 -8 -8 -8 -9 -9 -8 -8 -9 -10 -11 -12 -12
-8 -7 -6 -7 -7 -8 -8 -7 -6 -6 -6 -5 -4 -3 -2 -2 -1 -1 -2 -3 -3 -4 -2 -3 -2 -1 -0 -1 -2 -2 -4 -4 -1 -2 -1 -2 -5 -6 -7 -8 -9 -9 -9 -9 -9 -10 -10 -10 -10 -11 -12 -13 -13 -13
-8 -7 -6 -7 -7 -8 -9 -7 -6 -5 -4 -4 -3 -2 -2 -2 -3 -4 -3 -3 -2 -2 -2 -3 -2 -2 -2 -3 -2 -2 -3 -2 -4 -3 -0 -4 -6 -7 -8 -8 -9 -9 -10 -11 -11 -12 -12 -12 -13 -13 -13 -13 -14 -14
-7 -7 -6 -6 -7 -8 -9 -9 -8 -6 -4 -4 -3 -2 -3 -2 -1 0 -0 -1 -1 -2 -4 -3 -2 -2 -2 -3 -3 -2 -2 -3 -2 -0 -3 -5 -6 -7 -8 -9 -11 -11 -12 -12 -13 -13 -13 -13 -13 -14 -14 -14 -14 -14
-7 -5 -5 -6 -7 -8 -8 -7 -7 -5 -6 -4 -3 -3 -1 -1 -1 -1 -1 -1 -1 -4 -3 -2 -2 -2 -3 -3 -1 -3 -1 0 -2 -5 -6 -6 -7 -8 -9 -11 -12 -11 -11 -12 -13 -13 -13 -13 -14 -14 -14 -14 -15 -15
-5 -6 -9 -9 -8 -8 -8 -6 -5 -7 -6 -3 -2 -3 -3 -1 -1 -1 -2 -2 -2 -2 -2 -2 -4 -2 -3 -2 -3 -1 -1 -3 -5 -6 -6 -7 -8 -9 -10 -11 -11 -11 -11 -12 -12 -13 -13 -14 -14 -14 -13 -14 -15 -14
-7 -8 -7 -7 -7 -5 -5 -5 -7 -5 -4 -3 -3 -3 -3 -2 -2 -2 -3 -3 -1 -2 -1 -2 -4 -2 -1 -2 -1 -3 -5 -5 -6 -7 -8 -8 -9 -11 -11 -11 -11 -11 -11 -12 -13 -13 -14 -13 -11 -11 -11 -11 -12 -12
-7 -9 -9 -9 -8 -7 -6 -7 -5 -3 -3 -4 -4 -4 -3 -3 -2 -3 -3 -3 -2 -2 -2 -3 -2 -3 -2 -2 -3 -5 -6 -7 -7 -8 -9 -9 -11 -11 -11 -11 -11 -11 -12 -13 -12 -11 -11 -12 -14 -14 -14 -14 -13 -14
-7 -9 -9 -10 -8 -8 -6 -5 -5 -4 -4 -4 -4 -4 -3 -4 -4 -3 -3 -3 -3 -3 -3 -4 -3 -3 -3 -4 -4 -5 -6 -7 -8 -9 -10 -10 -10 -10 -10 -11 -11 -12 -12 -13 -12 -13 -13 -12 -11 -12 -13 -14 -14 -16
-6 -7 -7 -7 -5 -4 -4 -4 -4 -4 -5 -4 -4 -5 -5 -5 -5 -4 -3 -4 -3 -2 -2 -3 -4 -4 -5 -5 -5 -6 -7 -8 -9 -10 -10 -10 -10 -11 -10 -9 -10 -12 -10 -10 -10 -11 -11 -11 -12 -12 -13 -14 -16 -16
-6 -6 -5 -5 -5 -4 -4 -4 -5 -6 -5 -5 -4 -5 -4 -4 -4 -3 -4 -3 -2 -3 -4 -4 -5 -6 -6 -6 -7 -7 -8 -7 -7 -8 -10 -11 -9 -10 -11 -12 -12 -11 -12 -11 -11 -11 -12 -12 -13 -13 -14 -15 -17 -16
-6 -6 -6 -7 -5 -4 -4 -5 -5 -6 -5 -4 -4 -4 -4 -3 -4 -5 -4 -3 -4 -5 -5 -5 -6 -6 -6 -7 -7 -7 -7 -7 -8 -9 -10 -9 -9 -9 -9 -10 -11 -10 -11 -11 -11 -13 -14 -14 -15 -15 -16 -17 -17 -16
-7 -6 -6 -5 -4 -5 -4 -4 -5 -4 -5 -4 -4 -3 -4 -4 -6 -4 -3 -5 -5 -6 -6 -7 -7 -7 -7 -7 -8 -8 -9 -9 -9 -9 -9 -9 -10 -10 -11 -12 -13 -13 -13 -13 -14 -16 -15 -15 -15 -15 -16 -17 -17 -16
-7 -7 -4 -4 -4 -4 -4 -4 -5 -5 -6 -4 -5 -4 -4 -6 -4 -4 -4 -5 -6 -6 -7 -7 -8 -8 -10 -10 -9 -9 -9 -9 -10 -10 -11 -11 -12 -12 -14 -18 -17 -18 -16 -16 -17 -15 -14 -15 -16 -16 -17 -21 -20 -19
-6 -6 -5 -5 -5 -4 -5 -3 -5 -5 -5 -4 -4 -5 -6 -5 -3 -3 -4 -6 -6 -6 -7 -7 -8 -9 -9 -9 -9 -9 -10 -10 -11 -12 -12 -12 -13 -12 -12 -12 -13 -13 -14 -15 -21 -28 -26 -23 -21 -24 -24 -21 -18 -18
-5 -5 -6 -5 -4 -4 -5 -5 -6 -6 -6 -4 -4 -5 -5 -4 -5 -7 -7 -6 -6 -7 -7 -8 -8 -8 -8 -9 -10 -10 -10 -10 -11 -16 -17 -16 -17 -17 -17 -16 -14 -15 -19 -27 -30 -30 -31 -30 -29 -28 -26 -23 -21 -20
-6 -6 -7 -5 -5 -5 -5 -6 -6 -6 -5 -5 -6 -5 -5 -8 -9 -9 -8 -7 -7 -7 -7 -7 -7 -7 -8 -10 -10 -11 -11 -12 -13 -16 -21 -25 -28 -29 -29 -29 -29 -29 -30 -31 -30 -30 -29 -27 -27 -27 -26 -23 -21 -20
-7 -7 -7 -9 -7 -7 -8 -8 -7 -9 -9 -7 -5 -8 -10 -11 -10 -10 -9 -8 -8 -8 -8 -8 -8 -8 -9 -10 -11 -12 -13 -15 -20 -25 -20 -18 -20 -20 -28 -30 -32 -32 -31 -30 -27 -27 -28 -28 -27 -26 -24 -21 -19 -20
-8 -7 -9 -10 -11 -9 -10 -10 -10 -11 -10 -11 -11 -12 -13 -12 -11 -10 -10 -9 -9 -9 -9 -9 -9 -9 -10 -13 -16 -17 -17 -18 -24 -22 -14 -16 -18 -26 -30 -32 -31 -30 -27 -27 -28 -28 -28 -26 -26 -26 -24 -23 -22 -22
-8 -7 -9 -10 -10 -11 -11 -12 -11 -10 -9 -10 -11 -13 -14 -13 -11 -11 -11 -10 -11 -10 -10 -10 -11 -12 -13 -15 -16 -16 -16 -19 -21 -21 -22 -25 -29 -31 -31 -30 -27 -28 -28 -28 -28 -27 -27 -24 -22 -21 -22 -22 -23 -25
-7 -9 -10 -11 -11 -12 -11 -10 -9 -11 -12 -12 -11 -13 -13 -12 -12 -12 -11 -11 -11 -11 -11 -12 -12 -12 -14 -16 -17 -21 -25 -29 -28 -28 -30 -32 -32 -31 -28 -27 -28 -28 -27 -27 -26 -22 -21 -21 -22 -24 -26 -26 -27 -26
-8 -10 -12 -12 -12 -11 -11 -10 -10 -9 -10 -11 -12 -12 -10 -12 -13 -13 -12 -12 -12 -12 -13 -12 -13 -13 -14 -14 -18 -25 -27 -27 -29 -31 -32 -31 -28 -27 -28 -28 -27 -27 -26 -22 -22 -22 -22 -24 -26 -27 -27 -27 -27 -27